User: anonymous   Login
Location: Theydon Bois
(51.6750°N, 0.1050°E)
Time: 16:41:26
(UTC+01:00)
Language:

ALOS - Orbit

View from above orbital plane
View from above orbital plane
View from above satellite
View from above satellite

Ground track
Ground track

The orbit data is extracted from the following two-line orbital elements,

1 28931U 06002A   17295.54112002  .00000282  00000-0  64346-4 0  9999
2 28931  97.8360 316.4749 0000646  57.5731 302.5531 14.62410320626079
Epoch (UTC): 22 October 2017 12:59:12
Eccentricity: 0.0000646
inclination: 97.8360°
perigee height: 685 km
apogee height: 686 km
right ascension of ascending node: 316.4749°
argument of perigee: 57.5731°
revolutions per day: 14.62410320
mean anomaly at epoch: 302.5531°
orbit number at epoch: 62607

The dashed part of the orbit path shows where the satellite is in the earth's shadow,  

DLR